2017-008L

Last updated on Wed Mar 01 2017 00:15:03 GMT+0000 (Coordinated Universal Time)

1 41958U 17008L 17059.03069515 .00001497 00000-0 69965-4 0 9994 2 41958 97.5101 120.6294 0008437 206.1042 153.9765 15.21333887 1764
UTC large
Height (km)
Speed (km/s)
/
Latitude / Longitude
Inclination (degrees)
Orbital Period (minutes)
Azimuth
Elevation
Range (km)
Doppler Factor

Next 0 passes for location: London (51.5072 / 0.1276)

Sorry there are no passes over London.
2017-008L